"startDT [UTC]","vpos","CH4 [ppm]","stdev(CH4) [ppm]","CO2 [ppm]","stdev(CO2) [ppm]","H2O [ppm]","stdev(H2O)","p_LGR [torr]","T_LGR [C]","mt1_LGR [us]","mt2_LGR [us]","T_ECpre [C]","T_EC1 [C]","T_EC2 [C]","p_inlet [hPa]","p_in [hPa]","p_out [hPa]","T_inlet [C]","RH_inlet [%]","dwpt_inlet [C]","T_vent [C]","RH_vent [%]","dwpt_vent [C]","flow_vent [l min-1]","flow_inlet [l min-1]","dwpt_sample [C]","T_room [C]"
2012-02-12 00:00:00,0.0,1.9011,0.0011,400.89,0.36,18.7,26.2,138.15,27.57,24.59,36.28,0.04,-272.74,-272.73,-46,554,-918,20.1,3.3,-25.2,20.5,3.4,-24.8,5.73,2.43,-28.1,26.5
2012-02-12 00:01:00,0.0,1.9006,0.0009,400.87,0.46,17.7,25.4,138.14,27.57,24.59,36.29,0.04,-272.74,-272.74,-46,554,-918,20.1,3.4,-24.9,20.5,3.5,-24.5,5.73,2.27,-28.1,26.5
2012-02-12 00:02:00,0.0,1.8999,0.0010,400.89,0.49,18.1,23.6,138.14,27.57,24.59,36.29,0.04,-272.74,-272.74,-45,554,-918,20.1,3.5,-24.9,20.5,3.5,-24.4,5.73,2.38,-28.1,26.5
2012-02-12 00:03:00,0.0,1.9009,0.0008,400.92,0.40,17.1,22.9,138.14,27.57,24.59,36.28,0.04,-272.73,-272.73,-46,554,-918,20.1,3.4,-25.0,20.5,3.5,-24.5,5.73,2.48,-28.1,26.5
2012-02-12 00:04:00,0.0,1.9011,0.0009,400.75,0.43,17.5,24.5,138.14,27.57,24.59,36.30,0.04,-272.73,-272.73,-46,554,-918,20.1,3.4,-25.1,20.5,3.4,-24.6,5.73,2.31,-28.1,26.5
2012-02-12 00:05:00,0.0,1.9027,0.0012,400.99,0.37,15.5,21.9,138.14,27.57,24.59,36.28,0.04,-272.74,-272.73,-46,554,-918,20.1,3.3,-25.4,20.5,3.4,-24.9,5.73,2.31,-28.1,26.5
2012-02-12 00:06:00,0.0,1.9030,0.0009,401.08,0.39,17.2,25.6,138.14,27.57,24.59,36.29,0.04,-272.74,-272.74,-45,554,-918,20.1,3.2,-25.7,20.5,3.3,-25.3,5.73,2.48,-28.1,26.5
2012-02-12 00:07:00,0.0,1.9031,0.0010,400.99,0.43,18.6,22.0,138.14,27.57,24.59,36.29,0.04,-272.73,-272.74,-46,554,-918,20.1,3.1,-26.1,20.5,3.1,-25.6,5.73,2.37,-28.1,26.5
2012-02-12 00:08:00,0.0,1.9031,0.0009,401.11,0.48,13.3,18.7,138.14,27.57,24.59,36.28,0.04,-272.73,-272.74,-46,554,-918,20.1,3.0,-26.4,20.5,3.1,-25.9,5.73,2.27,-28.1,26.4
2012-02-12 00:09:00,0.0,1.9034,0.0009,401.00,0.48,17.4,22.4,138.14,27.56,24.59,36.28,0.04,-272.74,-272.74,-46,554,-918,20.1,2.9,-26.6,20.5,3.0,-26.1,5.73,2.44,-28.1,26.4
2012-02-12 00:10:00,0.0,1.9032,0.0010,401.17,0.42,20.3,23.4,138.14,27.56,24.59,36.28,0.04,-272.74,-272.74,-45,554,-918,20.1,2.9,-26.9,20.5,2.9,-26.4,5.73,2.43,-28.1,26.4
2012-02-12 00:11:00,0.0,1.9034,0.0010,401.05,0.45,20.1,25.3,138.14,27.56,24.59,36.28,0.04,-272.73,-272.74,-46,554,-918,20.2,2.8,-27.0,20.6,2.9,-26.5,5.73,2.27,-28.1,26.4
2012-02-12 00:12:00,0.0,1.9030,0.0009,400.94,0.53,18.5,23.2,138.14,27.56,24.59,36.29,0.04,-272.74,-272.74,-46,554,-918,20.2,2.8,-27.1,20.5,2.9,-26.6,5.73,2.40,-28.1,26.4
2012-02-12 00:13:00,0.0,1.9027,0.0010,400.92,0.32,21.7,24.8,138.14,27.56,24.59,36.29,0.04,-272.73,-272.74,-46,554,-918,20.2,2.8,-27.1,20.6,2.9,-26.6,5.73,2.46,-28.1,26.4
2012-02-12 00:14:00,0.0,1.9022,0.0010,400.95,0.40,18.6,26.0,138.14,27.56,24.59,36.29,0.04,-272.74,-272.74,-46,554,-918,20.2,2.9,-26.9,20.6,2.9,-26.4,5.73,2.28,-28.1,26.4
2012-02-12 00:15:00,0.0,1.9014,0.0011,400.93,0.37,16.6,23.0,138.14,27.55,24.59,36.29,0.04,-272.74,-272.74,-46,554,-918,20.2,2.9,-26.7,20.6,3.0,-26.2,5.73,2.35,-28.1,26.4
2012-02-12 00:16:00,0.0,1.9020,0.0012,401.00,0.45,20.4,24.0,138.14,27.55,24.59,36.28,0.04,-272.74,-272.73,-46,554,-918,20.2,3.0,-26.3,20.6,3.1,-25.8,5.73,2.48,-28.1,26.4
2012-02-12 00:17:00,0.0,1.9029,0.0010,401.05,0.45,18.8,25.9,138.14,27.55,24.59,36.29,0.04,-272.74,-272.74,-46,554,-918,20.2,3.0,-26.4,20.6,3.1,-25.9,5.73,2.32,-28.1,26.4
2012-02-12 00:18:00,0.0,1.9028,0.0008,401.01,0.46,13.3,21.5,138.14,27.55,24.59,36.29,0.04,-272.73,-272.73,-46,555,-918,20.2,2.9,-26.9,20.6,2.9,-26.4,5.73,2.31,-28.1,26.4
2012-02-12 00:19:00,0.0,1.9030,0.0008,400.94,0.47,20.3,20.9,138.14,27.55,24.59,36.29,0.04,-272.74,-272.73,-46,554,-918,20.2,2.8,-27.2,20.6,2.8,-26.7,5.73,2.48,-28.1,26.4
2012-02-12 00:20:00,0.0,1.9030,0.0010,401.03,0.40,15.8,24.2,138.14,27.54,24.59,36.29,0.04,-272.74,-272.74,-46,554,-918,20.2,2.8,-27.3,20.6,2.8,-26.8,5.73,2.34,-28.1,26.4
2012-02-12 00:21:00,0.0,1.9030,0.0008,400.94,0.37,16.3,22.8,138.14,27.54,24.59,36.29,0.04,-272.73,-272.75,-46,554,-919,20.2,2.7,-27.4,20.6,2.8,-26.9,5.73,2.30,-28.1,26.4
2012-02-12 00:22:00,0.0,1.9027,0.0010,401.02,0.45,24.8,27.2,138.14,27.54,24.59,36.28,0.04,-272.75,-272.74,-45,554,-918,20.2,2.7,-27.4,20.6,2.8,-26.9,5.73,2.48,-28.1,26.4
2012-02-12 00:23:00,0.0,1.9026,0.0010,401.01,0.49,16.1,24.0,138.14,27.54,24.59,36.28,0.04,-272.74,-272.74,-46,554,-918,20.2,2.8,-27.3,20.6,2.8,-26.8,5.73,2.38,-28.1,26.5
2012-02-12 00:24:00,0.0,1.9026,0.0010,400.94,0.52,16.4,26.1,138.14,27.54,24.59,36.28,0.04,-272.74,-272.73,-46,554,-919,20.2,2.8,-27.2,20.6,2.8,-26.7,5.73,2.27,-28.0,26.4
2012-02-12 00:25:00,0.0,1.9026,0.0011,400.89,0.40,18.2,26.5,138.14,27.54,24.59,36.29,0.04,-272.74,-272.74,-45,555,-919,20.2,2.8,-27.0,20.6,2.9,-26.6,5.73,2.46,-28.0,26.4
2012-02-12 00:26:00,0.0,1.9022,0.0010,400.97,0.39,19.7,23.9,138.14,27.54,24.59,36.28,0.04,-272.74,-272.73,-45,554,-919,20.2,2.8,-27.0,20.6,2.9,-26.5,5.73,2.41,-28.1,26.4
2012-02-12 00:27:00,0.0,1.9025,0.0009,400.93,0.47,13.4,23.2,138.14,27.54,24.59,36.29,0.04,-272.74,-272.73,-46,554,-919,20.2,2.8,-27.0,20.6,2.9,-26.4,5.73,2.27,-28.0,26.4
2012-02-12 00:28:00,0.0,1.9023,0.0010,401.03,0.47,20.2,24.4,138.14,27.54,24.59,36.28,0.04,-272.74,-272.73,-46,555,-919,20.2,2.8,-27.0,20.6,2.9,-26.5,5.73,2.44,-28.0,26.4
2012-02-12 00:29:00,0.0,1.9021,0.0009,401.09,0.54,9.6,16.9,138.14,27.53,24.59,36.28,0.04,-272.74,-272.74,-45,555,-919,20.2,2.8,-27.0,20.6,2.9,-26.5,5.73,2.44,-28.0,26.5
2012-02-12 00:30:00,0.0,1.9022,0.0010,400.98,0.46,11.1,19.6,138.14,27.53,24.59,36.29,0.04,-272.74,-272.73,-45,555,-919,20.2,2.8,-27.0,20.6,2.9,-26.5,5.73,2.27,-28.0,26.6
2012-02-12 00:31:00,0.0,1.9023,0.0008,400.79,0.48,14.5,21.4,138.14,27.53,24.59,36.29,0.04,-272.74,-272.74,-46,555,-919,20.2,2.9,-26.8,20.6,2.9,-26.4,5.73,2.39,-28.0,26.6
2012-02-12 00:32:00,0.0,1.9025,0.0009,400.95,0.44,22.5,29.8,138.14,27.53,24.59,36.28,0.04,-272.74,-272.74,-45,555,-919,20.3,2.9,-26.8,20.6,2.9,-26.3,5.73,2.48,-28.0,26.5
2012-02-12 00:33:00,0.0,1.9022,0.0008,400.92,0.42,19.1,25.2,138.14,27.53,24.59,36.29,0.04,-272.74,-272.74,-45,555,-919,20.3,2.8,-26.9,20.6,2.9,-26.4,5.73,2.30,-28.0,26.5
2012-02-12 00:34:00,0.0,1.9026,0.0010,400.97,0.41,22.4,25.3,138.14,27.53,24.59,36.28,0.04,-272.73,-272.74,-45,555,-919,20.2,2.8,-27.1,20.6,2.9,-26.5,5.73,2.34,-28.1,26.5
2012-02-12 00:35:00,0.0,1.9023,0.0009,401.15,0.36,19.1,25.7,138.14,27.53,24.59,36.28,0.04,-272.74,-272.74,-46,555,-919,20.3,2.8,-27.1,20.7,2.8,-26.6,5.73,2.49,-28.0,26.5
2012-02-12 00:36:00,0.0,1.9026,0.0011,401.05,0.45,22.9,29.1,138.14,27.53,24.59,36.28,0.04,-272.74,-272.74,-45,555,-919,20.3,2.8,-27.1,20.7,2.8,-26.6,5.73,2.36,-28.1,26.5
2012-02-12 00:37:00,0.0,1.9021,0.0008,400.82,0.49,20.9,25.6,138.14,27.53,24.59,36.29,0.04,-272.74,-272.74,-45,555,-919,20.3,2.8,-27.1,20.7,2.9,-26.5,5.73,2.28,-28.0,26.6
2012-02-12 00:38:00,0.0,1.9022,0.0010,400.87,0.47,17.7,23.8,138.14,27.53,24.59,36.29,0.04,-272.74,-272.73,-45,555,-919,20.3,2.8,-27.0,20.7,2.9,-26.5,5.73,2.46,-28.0,26.7
2012-02-12 00:39:00,0.0,1.9023,0.0009,401.02,0.44,22.5,31.2,138.14,27.53,24.59,36.28,0.04,-272.74,-272.74,-46,555,-919,20.2,2.8,-26.9,20.7,2.9,-26.4,5.73,2.43,-28.0,26.6
2012-02-12 00:40:00,0.0,1.9017,0.0009,401.05,0.41,23.2,23.1,138.14,27.53,24.59,36.28,0.04,-272.74,-272.74,-46,555,-919,20.2,2.9,-26.8,20.7,2.9,-26.3,5.73,2.27,-28.0,26.7
2012-02-12 00:41:00,0.0,1.9020,0.0010,401.03,0.41,14.0,23.9,138.14,27.53,24.59,36.28,0.04,-272.74,-272.74,-45,555,-919,20.3,2.9,-26.6,20.7,3.0,-26.2,5.73,2.40,-28.0,26.7
2012-02-12 00:42:00,0.0,1.9024,0.0011,400.97,0.41,22.4,28.6,138.14,27.53,24.59,36.28,0.04,-272.73,-272.74,-45,555,-919,20.2,2.9,-26.6,20.6,3.0,-26.1,5.73,2.47,-28.0,26.7
2012-02-12 00:43:00,0.0,1.9028,0.0011,400.94,0.38,17.5,24.5,138.14,27.53,24.59,36.29,0.04,-272.74,-272.74,-46,555,-919,20.3,2.9,-26.6,20.7,3.0,-26.1,5.73,2.30,-28.0,26.7
2012-02-12 00:44:00,0.0,1.9021,0.0009,401.09,0.41,17.1,25.1,138.14,27.53,24.59,36.28,0.04,-272.74,-272.74,-46,555,-919,20.3,2.9,-26.7,20.6,3.0,-26.2,5.73,2.33,-28.0,26.8
2012-02-12 00:45:00,0.0,1.9031,0.0009,401.12,0.46,23.8,30.1,138.14,27.53,24.59,36.29,0.04,-272.74,-272.74,-45,555,-919,20.2,2.9,-26.7,20.7,3.0,-26.2,5.73,2.49,-27.9,26.7
2012-02-12 00:46:00,0.0,1.9026,0.0011,400.96,0.41,19.8,30.3,138.14,27.53,24.59,36.29,0.04,-272.74,-272.74,-45,555,-919,20.3,2.9,-26.8,20.7,2.9,-26.4,5.73,2.36,-27.9,26.7
2012-02-12 00:47:00,0.0,1.9026,0.0009,401.01,0.45,20.4,23.2,138.14,27.53,24.59,36.29,0.04,-272.74,-272.74,-46,555,-919,20.3,2.8,-27.0,20.6,2.9,-26.4,5.73,2.28,-27.9,26.7
2012-02-12 00:48:00,0.0,1.9025,0.0009,401.12,0.49,25.6,25.8,138.14,27.53,24.59,36.28,0.04,-272.74,-272.73,-46,555,-919,20.3,2.8,-27.0,20.7,2.9,-26.4,5.73,2.46,-27.9,26.7
2012-02-12 00:49:00,0.0,1.9022,0.0008,400.88,0.43,21.2,27.5,138.14,27.53,24.59,36.29,0.04,-272.74,-272.73,-45,555,-919,20.3,2.8,-27.0,20.7,2.9,-26.4,5.73,2.41,-27.9,26.7
2012-02-12 00:50:00,0.0,1.9022,0.0009,401.06,0.42,28.9,29.8,138.14,27.53,24.59,36.28,0.04,-272.74,-272.74,-45,555,-919,20.3,2.8,-26.9,20.7,2.9,-26.4,5.73,2.27,-27.9,26.7
2012-02-12 00:51:00,0.0,1.9025,0.0009,401.09,0.49,18.7,22.6,138.14,27.53,24.59,36.28,0.04,-272.73,-272.74,-45,555,-919,20.2,2.8,-26.9,20.7,2.9,-26.4,5.73,2.40,-28.0,26.8
2012-02-12 00:52:00,0.0,1.9026,0.0008,400.90,0.43,15.7,20.5,138.14,27.53,24.59,36.28,0.04,-272.73,-272.73,-46,555,-919,20.3,2.8,-26.9,20.7,2.9,-26.4,5.73,2.47,-27.9,26.8
2012-02-12 00:53:00,0.0,1.9027,0.0009,401.07,0.34,22.8,28.2,138.14,27.53,24.59,36.28,0.04,-272.73,-272.74,-45,555,-919,20.3,2.8,-26.9,20.7,2.9,-26.4,5.73,2.29,-27.9,26.8
2012-02-12 00:54:00,0.0,1.9024,0.0009,401.03,0.44,26.1,30.2,138.14,27.53,24.59,36.28,0.04,-272.73,-272.74,-45,555,-919,20.2,2.8,-27.0,20.7,2.9,-26.5,5.73,2.35,-27.9,26.8
2012-02-12 00:55:00,0.0,1.9026,0.0009,401.03,0.49,24.5,28.7,138.14,27.53,24.59,36.28,0.04,-272.73,-272.74,-45,555,-919,20.2,2.8,-27.1,20.7,2.9,-26.6,5.73,2.49,-27.8,26.8
2012-02-12 00:56:00,0.0,1.9024,0.0010,401.11,0.41,26.0,30.1,138.14,27.53,24.59,36.29,0.04,-272.74,-272.74,-46,555,-919,20.3,2.8,-27.0,20.7,2.9,-26.5,5.73,2.32,-27.9,26.7
2012-02-12 00:57:00,0.0,1.9022,0.0011,401.02,0.45,20.1,25.8,138.14,27.53,24.59,36.28,0.04,-272.73,-272.74,-45,555,-919,20.2,2.8,-27.0,20.7,2.9,-26.4,5.73,2.31,-27.9,26.6
2012-02-12 00:58:00,0.0,1.9026,0.0010,400.97,0.44,17.4,25.9,138.14,27.53,24.59,36.29,0.04,-272.73,-272.74,-45,555,-919,20.2,2.9,-26.8,20.7,2.9,-26.3,5.73,2.48,-27.9,26.7
2012-02-12 00:59:00,0.0,1.9025,0.0010,401.05,0.43,21.7,26.7,138.14,27.53,24.59,36.29,0.04,-272.75,-272.74,-46,555,-919,20.3,2.9,-26.7,20.7,3.0,-26.2,5.73,2.38,-27.9,26.6
2012-02-12 01:00:00,0.0,1.9025,0.0008,401.00,0.43,23.3,29.7,138.14,27.53,24.59,36.29,0.04,-272.73,-272.73,-46,555,-919,20.3,2.9,-26.8,20.7,3.0,-26.2,5.73,2.27,-27.9,26.6
2012-02-12 01:01:00,0.0,1.9026,0.0008,400.94,0.39,24.4,28.8,138.14,27.53,24.59,36.29,0.04,-272.73,-272.74,-45,555,-919,20.3,2.9,-26.7,20.7,3.0,-26.2,5.73,2.45,-27.9,26.7
2012-02-12 01:02:00,0.0,1.9024,0.0009,401.04,0.36,21.0,26.8,138.14,27.53,24.59,36.28,0.04,-272.74,-272.74,-45,555,-919,20.3,2.9,-26.6,20.7,3.0,-26.1,5.73,2.42,-27.8,26.7
2012-02-12 01:03:00,0.0,1.9024,0.0010,400.94,0.41,23.3,27.1,138.14,27.53,24.59,36.29,0.04,-272.74,-272.74,-46,555,-919,20.3,2.9,-26.6,20.7,3.0,-26.0,5.73,2.26,-27.9,26.7
2012-02-12 01:04:00,0.0,1.9024,0.0010,400.97,0.39,21.1,26.5,138.14,27.53,24.59,36.29,0.04,-272.73,-272.74,-46,555,-919,20.3,3.0,-26.4,20.7,3.0,-25.9,5.73,2.41,-27.8,26.8
2012-02-12 01:05:00,0.0,1.9030,0.0009,400.93,0.46,20.7,25.7,138.14,27.53,24.59,36.29,0.04,-272.74,-272.73,-45,555,-919,20.3,2.9,-26.5,20.7,3.0,-26.0,5.73,2.46,-27.8,26.7
2012-02-12 01:06:00,0.0,1.9032,0.0009,400.94,0.41,19.5,25.3,138.14,27.54,24.59,36.29,0.04,-272.74,-272.73,-45,556,-919,20.3,2.9,-26.6,20.7,3.0,-26.1,5.73,2.28,-27.9,26.8
2012-02-12 01:07:00,0.0,1.9031,0.0009,401.09,0.41,22.3,26.6,138.14,27.54,24.59,36.28,0.04,-272.74,-272.73,-46,555,-919,20.3,2.9,-26.7,20.7,2.9,-26.2,5.73,2.37,-27.8,26.7
2012-02-12 01:08:00,0.0,1.9030,0.0009,400.92,0.45,26.8,30.8,138.14,27.54,24.59,36.30,0.04,-272.73,-272.73,-46,555,-919,20.3,2.9,-26.8,20.7,2.9,-26.3,5.73,2.48,-27.8,26.8
2012-02-12 01:09:00,0.0,1.9032,0.0010,401.01,0.37,22.5,27.6,138.14,27.54,24.59,36.29,0.04,-272.74,-272.73,-45,556,-919,20.3,2.8,-26.9,20.7,2.9,-26.4,5.73,2.29,-27.8,26.7
2012-02-12 01:10:00,0.0,1.9035,0.0010,401.09,0.52,28.4,29.7,138.14,27.54,24.59,36.28,0.04,-272.74,-272.73,-45,555,-919,20.3,2.8,-27.0,20.7,2.9,-26.4,5.73,2.36,-27.8,26.7
2012-02-12 01:11:00,0.0,1.9034,0.0009,401.25,0.48,19.0,23.7,138.14,27.54,24.59,36.28,0.04,-272.74,-272.74,-46,555,-919,20.3,2.8,-27.0,20.7,2.9,-26.5,5.73,2.48,-27.8,26.7
2012-02-12 01:12:00,0.0,1.9037,0.0010,401.12,0.42,19.4,24.1,138.14,27.54,24.59,36.29,0.04,-272.74,-272.74,-46,556,-919,20.3,2.8,-27.1,20.7,2.8,-26.6,5.73,2.31,-27.8,26.7
2012-02-12 01:13:00,0.0,1.9037,0.0009,401.16,0.44,22.9,24.6,138.14,27.54,24.59,36.29,0.04,-272.74,-272.74,-45,556,-919,20.4,2.7,-27.3,20.7,2.8,-26.8,5.73,2.32,-27.8,26.7
2012-02-12 01:14:00,0.0,1.9035,0.0010,401.21,0.46,22.9,26.1,138.14,27.54,24.59,36.28,0.04,-272.73,-272.74,-45,556,-919,20.4,2.7,-27.3,20.7,2.8,-26.8,5.73,2.48,-27.8,26.7
2012-02-12 01:15:00,0.0,1.9035,0.0011,401.06,0.42,28.1,30.9,138.14,27.55,24.59,36.29,0.04,-272.74,-272.73,-46,556,-919,20.4,2.7,-27.2,20.7,2.8,-26.7,5.73,2.35,-27.8,26.7
2012-02-12 01:16:00,0.0,1.9034,0.0010,401.21,0.37,26.0,27.6,138.14,27.55,24.59,36.29,0.04,-272.74,-272.72,-46,556,-919,20.4,2.8,-26.9,20.7,2.9,-26.5,5.73,2.29,-27.8,26.7
2012-02-12 01:17:00,0.0,1.9030,0.0008,401.13,0.42,29.9,34.8,138.14,27.55,24.59,36.29,0.04,-272.75,-272.73,-45,556,-919,20.4,2.9,-26.6,20.7,3.0,-26.2,5.73,2.48,-27.8,26.8
2012-02-12 01:18:00,0.0,1.9036,0.0009,401.19,0.39,31.3,29.1,138.14,27.55,24.59,36.29,0.04,-272.74,-272.73,-45,556,-919,20.4,2.9,-26.5,20.8,3.0,-25.9,5.73,2.37,-27.8,26.8
2012-02-12 01:19:00,0.0,1.9038,0.0011,401.20,0.40,26.5,31.8,138.14,27.55,24.59,36.28,0.04,-272.74,-272.73,-46,556,-920,20.4,2.9,-26.7,20.8,2.9,-26.2,5.73,2.28,-27.8,26.9
2012-02-12 01:20:00,0.0,1.9039,0.0011,401.09,0.37,24.6,25.6,138.14,27.55,24.59,36.29,0.04,-272.73,-272.73,-46,556,-919,20.4,2.7,-27.3,20.8,2.8,-26.8,5.73,2.47,-27.8,26.9
2012-02-12 01:21:00,0.0,1.9038,0.0010,401.17,0.37,32.1,29.4,138.14,27.56,24.59,36.28,0.04,-272.74,-272.73,-45,556,-919,20.4,2.6,-27.7,20.8,2.7,-27.1,5.73,2.40,-27.8,26.8
2012-02-12 01:22:00,0.0,1.9043,0.0009,400.99,0.42,25.6,26.4,138.14,27.56,24.59,36.30,0.04,-272.74,-272.74,-46,556,-919,20.4,2.6,-27.8,20.8,2.7,-27.3,5.73,2.27,-27.7,26.7
2012-02-12 01:23:00,0.0,1.9040,0.0008,401.11,0.46,29.7,29.8,138.14,27.56,24.59,36.29,0.04,-272.73,-272.74,-46,556,-919,20.4,2.6,-27.8,20.8,2.7,-27.2,5.73,2.44,-27.7,26.7
2012-02-12 01:24:00,0.0,1.9035,0.0009,401.09,0.49,32.7,30.2,138.14,27.56,24.59,36.29,0.04,-272.74,-272.74,-45,556,-920,20.5,2.6,-27.6,20.8,2.7,-27.1,5.73,2.43,-27.7,26.8
2012-02-12 01:25:00,0.0,1.9039,0.0009,401.21,0.49,31.6,31.1,138.14,27.57,24.59,36.29,0.04,-272.73,-272.73,-45,556,-919,20.5,2.7,-27.3,20.8,2.8,-26.7,5.73,2.27,-27.7,26.8
2012-02-12 01:26:00,0.0,1.9038,0.0009,401.23,0.49,30.2,30.2,138.14,27.57,24.59,36.29,0.04,-272.74,-272.74,-46,556,-919,20.5,2.7,-27.2,20.9,2.8,-26.6,5.73,2.43,-27.7,26.9
2012-02-12 01:27:00,0.0,1.9041,0.0012,401.13,0.38,34.0,29.9,138.14,27.57,24.59,36.29,0.04,-272.74,-272.74,-46,556,-919,20.6,2.7,-27.3,20.9,2.8,-26.8,5.73,2.44,-27.7,26.9
2012-02-12 01:28:00,0.0,1.9041,0.0009,401.23,0.49,31.6,27.0,138.14,27.58,24.59,36.28,0.04,-272.73,-272.73,-46,557,-919,20.6,2.7,-27.3,20.9,2.7,-26.8,5.73,2.27,-27.7,26.8
2012-02-12 01:29:00,0.0,1.9041,0.0011,401.15,0.41,31.7,29.2,138.14,27.59,24.59,36.29,0.04,-272.74,-272.74,-46,556,-919,20.6,2.7,-27.4,20.9,2.7,-26.9,5.73,2.40,-27.7,26.8
2012-02-12 01:30:00,0.0,1.9041,0.0009,401.07,0.51,38.5,29.6,138.14,27.59,24.59,36.29,0.04,-272.73,-272.74,-46,556,-920,20.6,2.6,-27.6,20.9,2.7,-27.1,5.73,2.46,-27.6,26.9
2012-02-12 01:31:00,0.0,1.9043,0.0007,401.16,0.41,38.8,32.8,138.13,27.59,24.59,36.29,0.04,-272.74,-272.73,-46,557,-919,20.6,2.7,-27.4,20.9,2.7,-27.0,5.73,2.27,-27.6,26.9
2012-02-12 01:32:00,0.0,1.9040,0.0008,401.15,0.38,38.4,32.9,138.14,27.60,24.59,36.29,0.04,-272.74,-272.74,-46,557,-919,20.6,2.6,-27.5,20.9,2.7,-27.0,5.73,2.40,-27.6,27.0
2012-02-12 01:33:00,0.0,1.9044,0.0009,401.22,0.46,31.6,27.5,138.14,27.60,24.59,36.29,0.04,-272.74,-272.73,-46,556,-919,20.6,2.7,-27.4,20.9,2.7,-27.0,5.73,2.46,-27.6,27.0
2012-02-12 01:34:00,0.0,1.9043,0.0009,401.25,0.43,33.5,31.8,138.14,27.61,24.59,36.28,0.04,-272.74,-272.73,-46,557,-919,20.6,2.6,-27.4,21.0,2.7,-27.0,5.73,2.26,-27.6,27.0
2012-02-12 01:35:00,0.0,1.9043,0.0008,401.15,0.39,37.4,31.4,138.14,27.61,24.59,36.29,0.04,-272.73,-272.73,-46,557,-920,20.6,2.7,-27.4,21.0,2.7,-26.9,5.73,2.39,-27.6,27.0
2012-02-12 01:36:00,0.0,1.9042,0.0009,401.16,0.43,45.4,29.7,138.14,27.61,24.59,36.29,0.04,-272.74,-272.74,-46,557,-919,20.6,2.6,-27.5,21.0,2.7,-27.0,5.73,2.46,-27.6,27.0
2012-02-12 01:37:00,0.0,1.9047,0.0010,401.18,0.41,37.3,33.4,138.13,27.62,24.59,36.29,0.04,-272.74,-272.73,-46,557,-919,20.6,2.6,-27.6,21.0,2.7,-27.1,5.73,2.27,-27.6,27.0
2012-02-12 01:38:00,0.0,1.9044,0.0009,401.18,0.43,45.3,31.6,138.14,27.62,24.59,36.29,0.04,-272.74,-272.74,-46,557,-920,20.6,2.6,-27.6,21.0,2.7,-27.1,5.73,2.39,-27.6,27.0
2012-02-12 01:39:00,0.0,1.9044,0.0010,401.16,0.42,37.6,33.6,138.14,27.63,24.59,36.29,0.04,-272.74,-272.74,-46,557,-919,20.7,2.6,-27.6,21.0,2.7,-27.0,5.73,2.46,-27.6,27.0
2012-02-12 01:40:00,0.0,1.9042,0.0009,401.06,0.36,44.2,38.1,138.13,27.63,24.60,36.29,0.04,-272.74,-272.74,-46,557,-919,20.7,2.6,-27.5,21.0,2.7,-27.0,5.73,2.26,-27.6,27.0
2012-02-12 01:41:00,0.0,1.9044,0.0009,401.22,0.44,40.6,33.0,138.13,27.64,24.59,36.29,0.04,-272.74,-272.73,-47,557,-919,20.6,2.6,-27.4,21.0,2.7,-26.9,5.73,2.41,-27.6,27.0
2012-02-12 01:42:00,0.0,1.9047,0.0011,401.10,0.43,33.2,30.0,138.13,27.64,24.59,36.29,0.04,-272.73,-272.73,-46,557,-919,20.7,2.6,-27.6,21.0,2.7,-27.1,5.73,2.45,-27.6,27.1
2012-02-12 01:43:00,0.0,1.9044,0.0009,401.22,0.45,35.8,33.0,138.13,27.64,24.59,36.29,0.04,-272.74,-272.74,-46,557,-919,20.6,2.6,-27.6,21.0,2.7,-27.1,5.73,2.25,-27.6,27.1
2012-02-12 01:44:00,0.0,1.9043,0.0010,401.29,0.40,35.1,23.6,138.13,27.64,24.59,36.29,0.04,-272.74,-272.74,-46,557,-919,20.6,2.7,-27.4,21.0,2.7,-26.8,5.73,2.43,-27.6,27.1
2012-02-12 01:45:00,0.0,1.9048,0.0009,401.23,0.39,40.5,37.8,138.13,27.65,24.59,36.29,0.04,-272.74,-272.73,-47,557,-919,20.6,2.7,-27.3,21.0,2.8,-26.7,5.73,2.41,-27.6,27.2
2012-02-12 01:46:00,0.0,1.9050,0.0011,401.17,0.42,39.5,31.0,138.13,27.65,24.59,36.30,0.04,-272.73,-272.73,-46,557,-919,20.6,2.7,-27.4,21.0,2.7,-26.9,5.73,2.26,-27.6,27.1
2012-02-12 01:47:00,0.0,1.9048,0.0009,401.23,0.44,34.8,28.4,138.13,27.65,24.59,36.29,0.04,-272.74,-272.74,-46,557,-919,20.7,2.6,-27.5,21.0,2.7,-26.9,5.73,2.46,-27.6,27.0
2012-02-12 01:48:00,0.0,1.9052,0.0009,401.16,0.37,37.1,28.3,138.13,27.65,24.59,36.29,0.04,-272.73,-272.73,-47,557,-919,20.7,2.6,-27.6,21.0,2.7,-27.1,5.73,2.38,-27.6,27.0
2012-02-12 01:49:00,0.0,1.9049,0.0009,401.12,0.42,38.9,30.8,138.13,27.66,24.59,36.29,0.04,-272.74,-272.74,-46,557,-919,20.6,2.6,-27.7,21.0,2.7,-27.1,5.73,2.27,-27.6,27.0
2012-02-12 01:50:00,0.0,1.9053,0.0009,401.23,0.52,37.3,26.4,138.13,27.66,24.59,36.29,0.04,-272.74,-272.74,-45,557,-919,20.6,2.6,-27.6,21.0,2.7,-27.2,5.73,2.47,-27.6,26.9
2012-02-12 01:51:00,0.0,1.9055,0.0008,401.32,0.42,42.5,31.7,138.13,27.66,24.59,36.29,0.04,-272.74,-272.74,-46,557,-919,20.7,2.7,-27.3,21.0,2.7,-26.8,5.73,2.35,-27.6,27.0
2012-02-12 01:52:00,0.0,1.9057,0.0010,401.39,0.44,46.1,31.8,138.13,27.67,24.59,36.29,0.04,-272.74,-272.74,-46,557,-919,20.7,2.8,-26.7,21.0,2.9,-26.2,5.73,2.30,-27.6,27.1
2012-02-12 01:53:00,0.0,1.9062,0.0008,401.39,0.40,40.1,32.9,138.13,27.67,24.59,36.29,0.04,-272.74,-272.74,-46,558,-919,20.7,3.0,-26.1,21.0,3.1,-25.6,5.73,2.48,-27.6,27.1
2012-02-12 01:54:00,0.0,1.9062,0.0010,401.38,0.45,32.8,27.8,138.13,27.67,24.59,36.30,0.04,-272.74,-272.73,-46,557,-919,20.7,3.1,-25.8,21.0,3.1,-25.3,5.73,2.30,-27.6,27.1
2012-02-12 01:55:00,0.0,1.9060,0.0009,401.44,0.51,38.3,31.2,138.13,27.67,24.59,36.29,0.04,-272.73,-272.73,-47,557,-919,20.7,3.1,-25.6,21.1,3.1,-25.3,5.73,2.34,-27.6,27.0
2012-02-12 01:56:00,0.0,1.9063,0.0008,401.36,0.41,37.1,28.6,138.13,27.67,24.59,36.29,0.04,-272.74,-272.74,-46,558,-919,20.7,3.1,-25.6,21.1,3.2,-25.1,5.73,2.48,-27.6,27.1
2012-02-12 01:57:00,0.0,1.9067,0.0009,401.46,0.42,39.8,34.5,138.13,27.68,24.59,36.29,0.04,-272.74,-272.74,-46,557,-919,20.7,3.1,-25.5,21.1,3.2,-25.1,5.73,2.27,-27.6,27.1
2012-02-12 01:58:00,0.0,1.9061,0.0010,401.39,0.44,40.4,35.2,138.13,27.68,24.59,36.29,0.04,-272.73,-272.74,-47,557,-919,20.7,3.1,-25.5,21.1,3.2,-25.1,5.73,2.38,-27.6,27.1
2012-02-12 01:59:00,0.0,1.9062,0.0010,401.35,0.43,41.6,29.1,138.13,27.69,24.59,36.30,0.04,-272.74,-272.73,-46,558,-919,20.7,3.1,-25.5,21.1,3.2,-25.0,5.73,2.45,-27.6,27.0
2012-02-12 02:00:00,0.0,1.9068,0.0010,401.43,0.38,39.4,33.3,138.13,27.69,24.59,36.29,0.04,-272.74,-272.74,-46,558,-919,20.7,3.1,-25.5,21.1,3.2,-25.1,5.73,2.25,-27.6,27.0
2012-02-12 02:01:00,0.0,1.9064,0.0011,401.38,0.46,34.3,25.7,138.13,27.69,24.59,36.30,0.04,-272.73,-272.73,-47,557,-919,20.7,3.1,-25.6,21.1,3.2,-25.1,5.73,2.45,-27.6,27.0
2012-02-12 02:02:00,0.0,1.9062,0.0009,401.29,0.51,38.8,28.0,138.13,27.69,24.59,36.29,0.04,-272.73,-272.74,-46,558,-919,20.7,3.1,-25.6,21.1,3.2,-25.2,5.73,2.38,-27.6,27.0
2012-02-12 02:03:00,0.0,1.9063,0.0009,401.27,0.39,43.3,33.7,138.13,27.70,24.59,36.30,0.04,-272.74,-272.74,-46,558,-919,20.7,3.1,-25.8,21.1,3.1,-25.3,5.73,2.28,-27.6,27.0
2012-02-12 02:04:00,0.0,1.9063,0.0010,401.27,0.43,36.7,32.2,138.13,27.70,24.59,36.30,0.04,-272.73,-272.74,-46,557,-919,20.7,3.1,-25.7,21.1,3.2,-25.2,5.73,2.48,-27.6,27.0
2012-02-12 02:05:00,0.0,1.9052,0.0010,401.20,0.47,38.1,34.7,138.13,27.70,24.60,36.30,0.04,-272.73,-272.74,-46,558,-920,20.7,3.1,-25.8,21.1,3.1,-25.3,5.73,2.33,-27.6,27.0
2012-02-12 02:06:00,0.0,1.9049,0.0009,401.16,0.39,37.4,33.1,138.13,27.70,24.59,36.29,0.04,-272.74,-272.74,-46,558,-919,20.8,2.9,-26.3,21.1,3.0,-25.8,5.73,2.32,-27.6,27.1
2012-02-12 02:07:00,0.0,1.9044,0.0010,401.16,0.46,37.6,25.0,138.13,27.71,24.59,36.29,0.04,-272.74,-272.73,-46,557,-920,20.8,2.8,-26.7,21.1,2.9,-26.2,5.73,2.49,-27.6,27.1
2012-02-12 02:08:00,0.0,1.9051,0.0011,401.17,0.47,35.7,32.0,138.13,27.71,24.59,36.29,0.04,-272.74,-272.74,-46,558,-920,20.7,2.8,-26.8,21.1,2.9,-26.3,5.73,2.28,-27.6,27.1
2012-02-12 02:09:00,0.0,1.9049,0.0010,401.22,0.44,34.1,34.2,138.13,27.71,24.59,36.30,0.04,-272.73,-272.73,-46,558,-920,20.8,2.8,-26.6,21.1,2.9,-26.1,5.73,2.36,-27.6,27.1
2012-02-12 02:10:00,0.0,1.9052,0.0010,401.29,0.40,46.0,33.8,138.13,27.72,24.59,36.30,0.04,-272.74,-272.74,-46,557,-920,20.8,2.8,-26.6,21.1,2.9,-26.1,5.73,2.47,-27.6,27.1
2012-02-12 02:11:00,0.0,1.9053,0.0009,401.27,0.38,41.2,31.5,138.13,27.73,24.59,36.30,0.04,-272.73,-272.74,-47,558,-920,20.8,2.9,-26.5,21.1,2.9,-26.0,5.73,2.26,-27.6,27.1
2012-02-12 02:12:00,0.0,1.9061,0.0009,401.22,0.45,37.9,31.7,138.13,27.73,24.59,36.31,0.04,-272.74,-272.74,-46,558,-920,20.8,2.9,-26.4,21.1,2.9,-25.9,5.73,2.42,-27.6,27.0
2012-02-12 02:13:00,0.0,1.9053,0.0010,401.35,0.46,42.0,31.0,138.13,27.73,24.60,36.29,0.04,-272.74,-272.74,-46,557,-920,20.8,2.9,-26.2,21.1,3.0,-25.7,5.73,2.42,-27.6,27.0
2012-02-12 02:14:00,0.0,1.9060,0.0008,401.28,0.39,37.0,31.8,138.13,27.74,24.59,36.29,0.04,-272.74,-272.74,-47,558,-919,20.8,3.0,-25.9,21.1,3.1,-25.5,5.73,2.26,-27.6,27.0
2012-02-12 02:15:00,0.0,1.9057,0.0010,401.27,0.43,34.7,32.5,138.13,27.74,24.59,36.30,0.04,-272.73,-272.74,-47,558,-920,20.8,3.0,-25.9,21.2,3.1,-25.4,5.73,2.46,-27.6,27.0
2012-02-12 02:16:00,0.0,1.9056,0.0010,401.37,0.52,37.2,27.5,138.13,27.74,24.59,36.29,0.04,-272.74,-272.74,-46,558,-919,20.8,3.0,-25.9,21.2,3.1,-25.5,5.73,2.36,-27.6,27.0
2012-02-12 02:17:00,0.0,1.9058,0.0009,401.27,0.38,38.6,32.5,138.13,27.75,24.59,36.30,0.04,-272.74,-272.74,-46,558,-919,20.8,3.0,-26.0,21.2,3.1,-25.5,5.73,2.29,-27.6,27.0